RADUGA-1 6 [-]

Last updated on Aug. 12, 2020, 5:32 a.m. UTC

1 26936U 01045A   20224.85344802 -.00000150  00000-0  00000-0 0  9997
2 26936  12.6580  29.5257 0013636 146.3585 220.0315  0.97745246 67731
UTC
Height (km)
Latitude
Longitude
Inclination
Orbital Period
UTC large
Height (km)
Speed (km/s)
/
Latitude / Longitude
Inclination (degrees)
Orbital Period (minutes)
Azimuth
Elevation
Range (km)
Doppler Factor
iOS Compass Heading
iOS Angle

Next 30 passes for location: Hong Kong

Rise time Rise Azimuth (degrees) Set time Set Azimuth (degrees) Duration Max altitude (degrees)

No matching passes for this satellites